Location: Unspecified
(49.2170°N, 0.0000°E)
Time: 17:18:30
(UTC+00:00)

Envisat - Pass Details

Date: 25 November 2020
Orbit: 764 x 766 km, 98.1° (Epoch: 20 January)

Event Time Altitude Azimuth Distance (km) Brightness Sun altitude
Rises 05:40:00 0° 17° (NNE) 3,247 6.3 -16.7°
Reaches altitude 10° 05:42:23 10° 22° (NNE) 2,316 5.6 -16.4°
Maximum altitude 05:47:23 54° 100° (E) 933 3.8 -15.6°
Drops below altitude 10° 05:52:20 10° 177° (S) 2,298 5.7 -14.8°
Sets 05:54:41 0° 182° (S) 3,219 6.4 -14.4°
